[[{"header":{"parameterUnit":"m.s-1","parameterCategory":1,"la1":30.2991,"la2":30.254,"lo1":-89.0895,"lo2":-89.0444,"dy":0.0017,"dx":0.0017,"nx":28,"ny":28,"refTime":"2025-03-07T03:00:00:Z","depth":0,"parameterNumber":2,"parameterNumberName":"U-component_of_WINDS"},"data":[0,0,0,0,0,0,0,0,0,0,0,0,0,0,0,0,0,0,0,0,0,0,0,0,0,0,0,0,0,0,0,0,0,0,0,0,0,0,0,0,0,0,0,0,0,0,0,0,0,0,0,0,0,0,0,0,0,0,1.5523,1.5523,0,1.5536,1.5536,1.5536,1.5491,1.5489,1.5488,1.5487,1.5501,1.5502,1.5504,0,0,0,0,0,0,0,0,0,0,0,0,0,1.5456,1.5457,1.5523,1.5523,1.5523,1.5536,1.5536,1.5536,1.5491,1.5489,1.5488,1.5486,1.55,1.5502,1.5504,0,0,0,0,0,0,0,0,0,0,0,0,0,1.5479,1.5458,1.5523,1.5502,1.55,1.5536,1.5536,1.5537,1.5491,1.5489,1.5487,1.5485,1.5499,1.5502,1.5504,1.5561,0,0,1.5512,1.5513,0,0,0,0,0,0,0,0,1.5477,1.5481,1.5505,1.5503,1.5501,1.551,1.5518,1.5545,1.5492,1.5495,1.5487,1.5484,1.5505,1.5507,1.5514,1.5561,1.5562,1.5512,1.5513,1.5515,1.5515,0,0,0,0,0,0,0,1.5476,1.548,1.5528,1.5505,1.5503,1.5491,1.5492,1.5523,1.5511,1.5494,1.5491,1.5493,1.5504,1.5512,1.5514,1.5562,1.5512,1.5514,1.5516,1.5517,1.5653,1.5655,0,0,0,0,0,0,1.5477,1.5479,1.5527,1.5528,1.5484,1.5494,1.5495,1.5509,1.5511,1.5509,1.5495,1.5491,1.5509,1.5511,1.5514,1.5578,1.5515,1.5517,1.5518,1.5651,1.5653,1.5656,0,0,0,0,0,0,1.5476,1.5482,1.5527,1.5503,1.5508,1.5498,1.5513,1.551,1.5518,1.5511,1.5509,1.5505,1.5507,1.5511,1.5549,1.5578,1.5518,1.552,1.5648,1.5651,1.5654,1.5707,0,0,0,0,0,0,1.5474,1.5482,1.5504,1.5504,1.5509,1.5562,1.5515,1.5512,1.5523,1.5518,1.552,1.5519,1.5506,1.5545,1.5551,1.558,1.5522,1.5645,1.565,1.5653,1.5702,1.5711,1.5719,0,0,0,0,0,1.5472,1.5519,1.5505,1.5511,1.5536,1.5564,1.5567,1.5551,1.5525,1.5546,1.5542,1.5519,1.5574,1.555,1.5556,1.5586,1.5644,1.5648,1.5653,1.5699,1.571,1.5719,0,0,0,0,0,0,1.5523,1.5518,1.5503,1.5551,1.5558,1.5556,1.5582,1.5563,1.5577,1.5572,1.5552,1.5553,1.5593,1.5594,1.5567,1.5639,1.5604,1.5611,1.5637,1.5647,1.5655,1.5653,1.5524,0,0,0,0,0,1.554,1.5562,1.5557,1.56,1.5604,1.5593,1.5604,1.5591,1.5597,1.56,1.5598,1.5604,1.5623,1.5636,1.5653,1.5703,1.5701,1.5727,1.5735,1.5742,1.5747,1.577,1.578,1.5671,1.5671,1.5671,0,0,1.5575,1.5575,1.5591,1.561,1.5614,1.5636,1.5595,1.5622,1.5638,1.5604,1.5638,1.5637,1.5643,1.5687,1.5706,1.5688,1.5777,1.5748,1.5754,1.5755,1.5776,1.5786,1.5796,1.5675,1.5674,1.5674,0,0,1.5649,1.5653,1.5687,1.5691,1.5697,1.5689,1.5697,1.5697,1.5695,1.5729,1.5703,1.5722,1.5756,1.5759,1.5766,1.584,1.5818,1.5847,1.5889,1.5912,1.5921,1.5928,1.5952,1.5961,1.5852,1.5852,1.5852,0,1.5692,1.5725,1.5708,1.5735,1.5743,1.5713,1.5746,1.5751,1.5763,1.5768,1.5749,1.5788,1.579,1.5832,1.585,1.5858,1.5865,1.5845,1.5921,1.5928,1.5935,1.5957,1.5966,1.5855,1.5855,1.5855,1.5854,0,1.5775,1.5799,1.5826,1.5836,1.5848,1.5878,1.5864,1.5878,1.5864,1.5858,1.5892,1.5893,1.5908,1.5918,1.5905,1.5958,1.5946,1.5925,1.5889,1.5949,1.5969,1.5978,1.586,1.5859,1.5858,1.5857,0,0,1.5882,1.5881,1.5891,1.5893,1.5896,1.5914,1.5943,1.5957,1.5967,1.5976,1.5998,1.6026,1.6005,1.6012,1.6,1.6021,1.6075,1.5995,1.5995,1.6007,1.613,1.6144,1.6154,1.6062,1.6063,1.6065,1.6128,0,1.5952,1.6,1.5984,1.6032,1.6052,1.6023,1.6047,1.6051,1.6046,1.6061,1.6056,1.6074,1.6047,1.6051,1.607,1.6064,1.6099,1.606,1.608,1.6081,1.6076,1.6165,1.6181,1.624,1.6136,1.6138,1.6139,0,1.6041,1.6051,1.6101,1.6098,1.6105,1.6128,1.6138,1.6154,1.6157,1.6152,1.6159,1.6142,1.6168,1.6134,1.6169,1.6143,1.615,1.6149,1.615,1.6149,1.6111,1.6163,1.626,1.6267,1.6151,1.615,1.6149,0,1.6109,1.6136,1.6168,1.6172,1.617,1.6186,1.6186,1.6187,1.6196,1.6205,1.621,1.6223,1.623,1.624,1.6225,1.6202,1.6261,1.6227,1.6255,1.6256,1.6267,1.6266,1.6362,1.6277,1.6277,1.6277,1.6277,0,1.6188,1.6218,1.6198,1.6218,1.625,1.6232,1.6265,1.6262,1.6263,1.6281,1.6258,1.6274,1.6256,1.6271,1.626,1.6289,1.6293,1.6288,1.6284,1.6288,1.6288,1.6291,1.6285,1.6279,1.6279,1.6278,1.6278,0,1.6269,1.6257,1.6289,1.6284,1.6284,1.6308,1.6303,1.6321,1.6313,1.6336,1.634,1.6328,1.6345,1.6332,1.6349,1.6341,1.6378,1.637,1.6376,1.6373,1.6401,1.6397,1.65,1.6511,1.6422,1.6423,1.6423,0,1.6318,1.634,1.6337,1.6347,1.6348,1.6365,1.6372,1.6355,1.6365,1.6369,1.6385,1.6399,1.6409,1.6437,1.6429,1.6441,1.6432,1.6467,1.6433,1.6436,1.6428,1.6426,1.6426,1.6473,1.6474,1.6475,1.6475,0,1.6406,1.6398,1.641,1.642,1.643,1.6437,1.6443,1.6452,1.6434,1.6446,1.6461,1.6469,1.6485,1.6498,1.6508,1.6507,1.6487,1.6486,1.6493,1.6496,1.6497,1.6493,1.6392,1.6483,1.6483,1.6482,1.6482,1.6481,1.647,1.6487,1.6487,1.6501,1.6502,1.6507,1.6522,1.6516,1.6529,1.654,1.6529,1.6547,1.6548,1.6558,1.656,1.6574,1.6559,1.657,1.6572,1.6574,1.6576,1.6497,1.6576,1.6576,1.6576,1.6575,1.6575,0,1.6553,1.6551,1.6564,1.6571,1.6582,1.6563,1.6567,1.6577,1.6593,1.6596,1.6605,1.6622,1.6635,1.6629,1.6639,1.6651,1.6642,1.6654,1.6652,1.6651,1.659,1.6582,1.6661,1.6661,1.6661,1.6661,1.6661,1.6661,1.6598,1.6625,1.6617,1.6644,1.6642,1.6659,1.6662,1.6666,1.6668,1.6687,1.6697,1.6693,1.6691,1.6701,1.6711,1.6709,1.6713,1.6727,1.6722,1.6664,1.6656,1.6648,1.664,1.6729,1.6729,1.6781,1.6781,1.6782]},{"header":{"parameterUnit":"m.s-1","parameterCategory":1,"la1":30.2991,"la2":30.254,"lo1":-89.0895,"lo2":-89.0444,"dy":0.0017,"dx":0.0017,"nx":28,"ny":28,"refTime":"2025-03-07T03:00:00:Z","depth":0,"parameterNumber":3,"parameterNumberName":"V-component_of_WINDS"},"data":[0,0,0,0,0,0,0,0,0,0,0,0,0,0,0,0,0,0,0,0,0,0,0,0,0,0,0,0,0,0,0,0,0,0,0,0,0,0,0,0,0,0,0,0,0,0,0,0,0,0,0,0,0,0,0,0,0,0,2.9797,2.9798,0,2.9837,2.9838,2.9838,2.9798,2.9796,2.9795,2.9793,2.9832,2.9834,2.9837,0,0,0,0,0,0,0,0,0,0,0,0,0,2.9683,2.9685,2.9797,2.9798,2.9798,2.9837,2.9838,2.9838,2.9798,2.9796,2.9795,2.9793,2.9831,2.9834,2.9837,0,0,0,0,0,0,0,0,0,0,0,0,0,2.9728,2.9686,2.9797,2.9783,2.9782,2.9837,2.9838,2.9838,2.9799,2.9796,2.9794,2.9792,2.983,2.9833,2.9837,2.9907,0,0,2.9848,2.985,0,0,0,0,0,0,0,0,2.9726,2.9733,2.9785,2.9784,2.9783,2.981,2.9811,2.9861,2.9799,2.9792,2.9793,2.9791,2.9826,2.983,2.9843,2.9909,2.991,2.9849,2.9851,2.9853,2.9854,0,0,0,0,0,0,0,2.9723,2.9731,2.9813,2.9785,2.9785,2.9774,2.9777,2.982,2.9822,2.9793,2.979,2.9795,2.9825,2.9839,2.9843,2.9911,2.9849,2.9852,2.9854,2.9856,3.0033,3.0036,0,0,0,0,0,0,2.9722,2.9728,2.9812,2.9814,2.9748,2.9778,2.9782,2.9804,2.9821,2.9822,2.9797,2.9793,2.9834,2.9839,2.9844,2.9925,2.9853,2.9856,2.9858,3.0031,3.0034,3.0037,0,0,0,0,0,0,2.9719,2.973,2.981,2.9771,2.978,2.9782,2.9807,2.9806,2.982,2.9825,2.9825,2.9811,2.9832,2.9839,2.9891,2.9926,2.9858,2.9861,3.0028,3.0032,3.0035,3.0089,0,0,0,0,0,0,2.9716,2.9729,2.9757,2.9772,2.9782,2.9858,2.9809,2.9808,2.9827,2.9822,2.9838,2.9838,2.9831,2.9886,2.9895,2.993,2.9864,3.0025,3.003,3.0034,3.0084,3.0094,3.0103,0,0,0,0,0,2.9712,2.977,2.9758,2.9768,2.9817,2.986,2.9866,2.9857,2.983,2.9856,2.9859,2.9838,2.9921,2.9892,2.9901,2.9938,3.0022,3.0028,3.0034,3.008,3.0092,3.0102,0,0,0,0,0,0,2.9759,2.9772,2.9759,2.9823,2.9841,2.9853,2.9887,2.987,2.9895,2.989,2.9877,2.9881,2.9936,2.9942,2.9909,3.0005,2.9967,2.9975,2.9999,3.0011,3.002,3.0016,2.9867,0,0,0,0,0,2.9776,2.9811,2.982,2.9876,2.9886,2.9885,2.9903,2.9895,2.9912,2.9919,2.9926,2.9942,2.9972,2.9992,3.002,3.0085,3.0087,3.0115,3.0124,3.0132,3.0138,3.0171,3.0183,3.0055,3.0055,3.0055,0,0,2.9813,2.9825,2.9848,2.9886,2.9898,2.9933,2.9891,2.993,2.9955,2.9925,2.9974,2.9979,2.9997,3.0055,3.0082,3.0062,3.0174,3.0139,3.0145,3.0147,3.0178,3.019,3.0201,3.0059,3.0058,3.0057,0,0,2.9898,2.9911,2.9958,2.9972,2.9991,2.999,3.0001,3.0016,3.0018,3.0068,3.0044,3.0074,3.0126,3.0138,3.0152,3.024,3.022,3.0249,3.0297,3.0329,3.034,3.0348,3.0378,3.0389,3.0256,3.0256,3.0256,0,2.9941,2.9994,2.9984,3.0025,3.0041,3.0015,3.0061,3.0075,3.0102,3.0113,3.0092,3.0155,3.0166,3.0226,3.0247,3.0259,3.027,3.0247,3.0339,3.0348,3.0356,3.0384,3.0395,3.0259,3.0259,3.0259,3.0258,0,3.0045,3.0081,3.0117,3.0144,3.0165,3.0208,3.0203,3.0225,3.0215,3.0215,3.0265,3.0276,3.0304,3.0318,3.0309,3.0376,3.0364,3.0341,3.0302,3.0372,3.0397,3.0408,3.0264,3.0263,3.0262,3.0261,0,0,3.016,3.0181,3.0194,3.0205,3.0224,3.0251,3.0292,3.0321,3.0339,3.0358,3.0391,3.0435,3.0413,3.0429,3.042,3.0449,3.0515,3.0422,3.0422,3.0437,3.0588,3.0604,3.0617,3.0502,3.0504,3.0506,3.0586,0,3.0244,3.0316,3.0308,3.0376,3.0408,3.0384,3.0419,3.0434,3.0435,3.0461,3.0462,3.0493,3.0464,3.0472,3.0499,3.0501,3.0545,3.0495,3.0531,3.0532,3.0526,3.0631,3.0648,3.0723,3.0596,3.0598,3.0599,0,3.0352,3.0375,3.0446,3.0458,3.0472,3.0504,3.0528,3.0554,3.057,3.0568,3.0585,3.0571,3.061,3.0571,3.0624,3.0591,3.0605,3.0608,3.0611,3.0612,3.0569,3.0634,3.0747,3.0757,3.0615,3.0614,3.0613,0,3.0426,3.0475,3.0524,3.0534,3.055,3.0573,3.058,3.0594,3.061,3.0632,3.0642,3.0667,3.0681,3.07,3.0692,3.0665,3.0746,3.0707,3.0745,3.0745,3.0762,3.0761,3.0877,3.0774,3.0774,3.0773,3.0773,0,3.052,3.0564,3.0557,3.0587,3.0635,3.0624,3.0672,3.0676,3.0688,3.0717,3.0697,3.0724,3.0713,3.074,3.0734,3.0777,3.0784,3.0783,3.0781,3.0784,3.0784,3.0792,3.0786,3.0776,3.0776,3.0775,3.0775,0,3.0611,3.0608,3.0659,3.067,3.0673,3.0708,3.0717,3.0744,3.0743,3.078,3.0788,3.0787,3.0816,3.0811,3.0844,3.084,3.0894,3.0886,3.0889,3.0886,3.0923,3.0919,3.1048,3.1063,3.0951,3.0952,3.0953,0,3.067,3.0704,3.0718,3.0736,3.0745,3.0775,3.0791,3.0782,3.08,3.0819,3.0843,3.0871,3.0893,3.0942,3.0943,3.0967,3.0959,3.1002,3.0962,3.0964,3.0957,3.0955,3.0957,3.101,3.1011,3.1012,3.1013,0,3.0775,3.0772,3.0798,3.0822,3.0843,3.0862,3.0879,3.0895,3.0887,3.0908,3.0938,3.0955,3.0988,3.1016,3.1038,3.1044,3.1027,3.1025,3.1035,3.1038,3.1038,3.1037,3.0908,3.1022,3.1021,3.1021,3.102,3.102,3.0851,3.0879,3.0892,3.0921,3.0933,3.0949,3.0974,3.0976,3.1002,3.1028,3.102,3.1054,3.1067,3.1095,3.1104,3.1129,3.1113,3.1128,3.1131,3.1134,3.1138,3.1035,3.1134,3.1133,3.1133,3.1133,3.1133,0,3.0953,3.096,3.0987,3.1011,3.1033,3.1015,3.1033,3.1052,3.1082,3.1096,3.1117,3.1151,3.1177,3.118,3.1204,3.1224,3.1216,3.1231,3.1228,3.123,3.1152,3.114,3.1236,3.1236,3.1236,3.1236,3.1236,3.1236,3.1009,3.1054,3.1052,3.1102,3.1109,3.1142,3.1153,3.1167,3.1177,3.1216,3.1238,3.124,3.1248,3.1273,3.1295,3.1296,3.1305,3.1322,3.1318,3.1246,3.1235,3.1225,3.1214,3.1324,3.1324,3.1394,3.1394,3.1395]}]]